DEFOG EDFH-EDDS

Flight info

Callsign DEFOG
Flight time N/A
Altitude 2600
Route EDXW/32
Aircraft E300

Departure

Time 2026-05-05 14:32
Airport Frankfurt-Hahn Airport (EDFH)

Arrival

Time N/A
Airport Stuttgart Airport (EDDS)
Time Latitude Longitude Altitude Speed Heading
2026-05-05 14:29 49.94352 7.26503 1649 ft 0 kts 112°
2026-05-05 14:30 49.94366 7.26487 1649 ft 8 kts 313°
2026-05-05 14:30 49.94418 7.26479 1649 ft 9 kts 351°
2026-05-05 14:30 49.94457 7.26411 1649 ft 9 kts 301°
2026-05-05 14:31 49.94476 7.26366 1649 ft 0 kts 301°
2026-05-05 14:31 49.94492 7.26327 1649 ft 24 kts 303°
2026-05-05 14:31 49.94566 7.26156 1649 ft 14 kts 303°
2026-05-05 14:31 49.94474 7.26012 1652 ft 61 kts 211°
2026-05-05 14:32 49.93815 7.25442 1756 ft 141 kts 177°
2026-05-05 14:32 49.92872 7.26352 1997 ft 177 kts 146°
2026-05-05 14:32 49.91865 7.27627 2204 ft 198 kts 141°
2026-05-05 14:32 49.90774 7.29055 2261 ft 203 kts 141°
2026-05-05 14:33 49.89748 7.30422 2271 ft 192 kts 141°
2026-05-05 14:33 49.88715 7.31807 2318 ft 205 kts 140°
2026-05-05 14:33 49.87626 7.33318 2490 ft 214 kts 139°
2026-05-05 14:33 49.86524 7.34934 2614 ft 218 kts 136°
2026-05-05 14:34 49.85454 7.36645 2632 ft 225 kts 135°
2026-05-05 14:34 49.84350 7.38409 2726 ft 226 kts 135°
2026-05-05 14:34 49.83284 7.40062 2672 ft 206 kts 136°
2026-05-05 14:34 49.82302 7.41608 2649 ft 195 kts 136°
2026-05-05 14:35 49.81336 7.43129 2376 ft 199 kts 136°
2026-05-05 14:35 49.80388 7.44611 2446 ft 187 kts 136°
2026-05-05 14:35 49.79490 7.46042 2421 ft 183 kts 136°
2026-05-05 14:35 49.78591 7.47432 2377 ft 182 kts 136°
2026-05-05 14:36 49.77738 7.48807 2395 ft 178 kts 134°
2026-05-05 14:36 49.76896 7.50240 2334 ft 182 kts 132°
2026-05-05 14:36 49.76149 7.51663 2851 ft 140 kts 128°
2026-05-05 14:36 49.75562 7.52921 2944 ft 151 kts 124°
2026-05-05 14:37 49.74934 7.54324 2869 ft 166 kts 126°
2026-05-05 14:37 49.74265 7.55822 2794 ft 176 kts 125°
2026-05-05 14:37 49.73582 7.57441 2683 ft 181 kts 124°
2026-05-05 14:37 49.72881 7.59046 2751 ft 178 kts 133°
2026-05-05 14:38 49.71848 7.59366 2772 ft 146 kts 205°
2026-05-05 14:38 49.71250 7.58364 2706 ft 118 kts 263°
2026-05-05 14:38 49.71617 7.57173 2801 ft 137 kts 338°
2026-05-05 14:38 49.72570 7.57279 2909 ft 145 kts 33°
2026-05-05 14:39 49.73055 7.58615 2981 ft 155 kts 89°
2026-05-05 14:39 49.72671 7.60135 3141 ft 155 kts 137°
2026-05-05 14:39 49.71730 7.60169 3295 ft 148 kts 223°